QPF
0.01 0.00 0.00 0.00 0.00 0.00 0.00 0.00 0.00 0.00 0.00 0.00 0.00 0.00 0.00 0.00 0.00 0.00 0.00 0.00 0.00 0.00 0.00 0.00 0.02 0.03 0.04 0.04 0.04 0.04 0.05 0.06 0.08 0.10 0.11 0.11 0.11 0.09 0.07 0.05 0.04 0.03 0.03 0.04 0.04 0.04 0.03 0.02 0.02
0.00 0.00 0.00 0.00 0.00 0.00 0.00 0.00 0.00 0.00 0.00 0.00 0.00 0.00 0.00 0.00 0.00 0.00 0.00 0.00 0.00 0.00 0.00 0.00 0.02 0.03 0.04 0.05 0.05 0.05 0.05 0.06 0.07 0.10 0.12 0.12 0.12 0.11 0.09 0.07 0.06 0.05 0.04 0.04 0.05 0.05 0.04 0.04 0.03
0.00 0.00 0.00 0.00 0.00 0.00 0.00 0.00 0.00 0.00 0.00 0.00 0.00 0.00 0.00 0.00 0.00 0.00 0.00 0.00 0.00 0.00 0.00 0.01 0.02 0.03 0.05 0.06 0.06 0.06 0.06 0.06 0.07 0.09 0.11 0.12 0.11 0.10 0.09 0.08 0.07 0.06 0.07 0.07 0.05 0.05 0.04 0.05 0.05
0.00 0.00 0.00 0.00 0.00 0.00 0.00 0.00 0.00 0.00 0.00 0.00 0.00 0.00 0.00 0.00 0.00 0.00 0.00 0.00 0.00 0.00 0.00 0.01 0.02 0.03 0.05 0.06 0.06 0.06 0.07 0.07 0.07 0.08 0.10 0.12 0.12 0.12 0.11 0.09 0.09 0.09 0.09 0.09 0.06 0.04 0.05 0.05 0.05
0.01 0.00 0.00 0.00 0.00 0.00 0.00 0.00 0.00 0.00 0.00 0.00 0.00 0.00 0.00 0.00 0.00 0.00 0.00 0.00 0.00 0.00 0.00 0.01 0.02 0.04 0.05 0.06 0.06 0.06 0.06 0.07 0.07 0.08 0.09 0.11 0.13 0.14 0.13 0.13 0.11 0.09 0.09 0.09 0.07 0.05 0.05 0.04 0.04
0.01 0.00 0.00 0.00 0.00 0.00 0.00 0.00 0.00 0.00 0.00 0.00 0.00 0.00 0.00 0.00 0.00 0.00 0.00 0.00 0.00 0.00 0.00 0.00 0.02 0.04 0.05 0.06 0.05 0.05 0.06 0.07 0.08 0.09 0.10 0.11 0.11 0.13 0.13 0.12 0.11 0.09 0.08 0.08 0.07 0.06 0.05 0.04 0.04
0.01 0.00 0.00 0.00 0.00 0.00 0.00 0.00 0.00 0.00 0.00 0.00 0.00 0.00 0.00 0.00 0.00 0.00 0.00 0.00 0.00 0.00 0.00 0.00 0.01 0.03 0.06 0.07 0.07 0.05 0.05 0.06 0.08 0.09 0.10 0.11 0.11 0.12 0.13 0.13 0.11 0.10 0.09 0.08 0.07 0.07 0.06 0.05 0.04
0.01 0.00 0.00 0.00 0.00 0.00 0.00 0.00 0.00 0.00 0.00 0.00 0.00 0.00 0.00 0.00 0.00 0.00 0.00 0.00 0.00 0.00 0.00 0.01 0.01 0.03 0.05 0.07 0.08 0.07 0.05 0.05 0.06 0.07 0.09 0.10 0.12 0.12 0.13 0.13 0.12 0.12 0.11 0.09 0.08 0.08 0.07 0.06 0.05
0.01 0.00 0.00 0.00 0.00 0.00 0.00 0.00 0.00 0.00 0.00 0.00 0.00 0.00 0.00 0.00 0.00 0.00 0.00 0.00 0.00 0.00 0.01 0.01 0.02 0.03 0.05 0.07 0.10 0.10 0.08 0.06 0.06 0.07 0.08 0.10 0.12 0.12 0.12 0.12 0.12 0.13 0.12 0.10 0.09 0.08 0.08 0.09 0.07
0.01 0.00 0.00 0.00 0.00 0.00 0.00 0.00 0.00 0.00 0.00 0.00 0.00 0.00 0.00 0.00 0.00 0.00 0.01 0.01 0.01 0.00 0.01 0.01 0.02 0.03 0.04 0.06 0.10 0.13 0.10 0.07 0.07 0.06 0.07 0.08 0.10 0.12 0.12 0.11 0.12 0.13 0.13 0.12 0.10 0.09 0.09 0.09 0.08
0.01 0.00 0.00 0.00 0.00 0.00 0.00 0.00 0.00 0.00 0.00 0.00 0.00 0.00 0.00 0.00 0.00 0.02 0.03 0.03 0.01 0.01 0.01 0.01 0.02 0.03 0.04 0.06 0.11 0.15 0.12 0.08 0.07 0.07 0.08 0.09 0.10 0.11 0.13 0.12 0.12 0.13 0.13 0.12 0.10 0.10 0.10 0.08 0.07
0.01 0.00 0.00 0.00 0.00 0.00 0.00 0.00 0.00 0.00 0.00 0.00 0.00 0.00 0.00 0.00 0.01 0.01 0.01 0.01 0.01 0.01 0.01 0.02 0.02 0.02 0.03 0.06 0.12 0.15 0.11 0.07 0.07 0.06 0.07 0.08 0.09 0.10 0.11 0.10 0.10 0.11 0.11 0.11 0.11 0.10 0.09 0.08 0.07
0.01 0.00 0.00 0.00 0.00 0.00 0.00 0.00 0.00 0.00 0.00 0.00 0.00 0.00 0.00 0.00 0.00 0.01 0.01 0.01 0.01 0.01 0.01 0.02 0.03 0.03 0.04 0.06 0.11 0.14 0.10 0.06 0.06 0.06 0.06 0.08 0.08 0.09 0.10 0.10 0.11 0.10 0.09 0.10 0.11 0.11 0.10 0.09 0.08
0.01 0.01 0.00 0.00 0.00 0.00 0.00 0.00 0.00 0.00 0.00 0.00 0.00 0.00 0.00 0.00 0.00 0.00 0.00 0.00 0.00 0.01 0.01 0.02 0.04 0.04 0.05 0.06 0.10 0.13 0.10 0.07 0.06 0.06 0.05 0.06 0.08 0.10 0.11 0.11 0.11 0.10 0.09 0.09 0.09 0.10 0.10 0.11 0.09
0.01 0.01 0.00 0.00 0.00 0.00 0.00 0.00 0.00 0.00 0.00 0.00 0.00 0.00 0.00 0.00 0.00 0.00 0.00 0.00 0.00 0.00 0.01 0.03 0.06 0.06 0.06 0.06 0.08 0.11 0.10 0.08 0.07 0.06 0.06 0.05 0.07 0.09 0.12 0.13 0.11 0.10 0.10 0.11 0.11 0.11 0.10 0.09 0.10
0.01 0.02 0.01 0.00 0.00 0.00 0.00 0.00 0.00 0.00 0.00 0.00 0.00 0.00 0.00 0.01 0.01 0.00 0.00 0.00 0.00 0.00 0.01 0.03 0.06 0.09 0.09 0.07 0.06 0.09 0.10 0.09 0.08 0.07 0.06 0.05 0.05 0.08 0.11 0.14 0.14 0.12 0.11 0.12 0.12 0.11 0.11 0.10 0.09
0.02 0.02 0.01 0.00 0.00 0.00 0.00 0.00 0.00 0.00 0.00 0.00 0.00 0.00 0.01 0.01 0.02 0.01 0.01 0.00 0.00 0.00 0.01 0.03 0.06 0.09 0.10 0.09 0.06 0.07 0.09 0.10 0.09 0.08 0.06 0.06 0.05 0.06 0.08 0.12 0.15 0.16 0.15 0.14 0.12 0.11 0.10 0.11 0.10
0.01 0.01 0.01 0.00 0.00 0.00 0.00 0.00 0.00 0.00 0.00 0.00 0.00 0.00 0.01 0.03 0.04 0.04 0.03 0.02 0.02 0.01 0.02 0.03 0.06 0.08 0.10 0.10 0.08 0.07 0.09 0.09 0.09 0.09 0.07 0.06 0.06 0.06 0.08 0.10 0.14 0.18 0.19 0.18 0.16 0.13 0.10 0.11 0.12
0.00 0.00 0.00 0.00 0.00 0.00 0.00 0.00 0.00 0.00 0.00 0.00 0.00 0.00 0.01 0.02 0.05 0.07 0.08 0.08 0.06 0.05 0.04 0.04 0.05 0.08 0.10 0.11 0.09 0.08 0.09 0.09 0.09 0.09 0.08 0.06 0.06 0.08 0.10 0.12 0.15 0.17 0.20 0.21 0.20 0.17 0.15 0.14 0.14
0.00 0.00 0.00 0.00 0.00 0.00 0.00 0.00 0.00 0.00 0.00 0.00 0.00 0.00 0.00 0.02 0.03 0.05 0.07 0.10 0.08 0.07 0.07 0.06 0.06 0.08 0.10 0.13 0.11 0.09 0.09 0.09 0.09 0.08 0.08 0.07 0.06 0.06 0.11 0.13 0.16 0.18 0.18 0.20 0.25 0.24 0.21 0.18 0.16
0.00 0.00 0.00 0.00 0.00 0.00 0.00 0.00 0.00 0.00 0.00 0.00 0.00 0.00 0.00 0.01 0.01 0.02 0.05 0.09 0.09 0.07 0.08 0.09 0.07 0.09 0.09 0.12 0.16 0.13 0.11 0.12 0.11 0.09 0.08 0.08 0.07 0.05 0.08 0.13 0.16 0.19 0.19 0.18 0.21 0.24 0.21 0.20 0.17
0.00 0.00 0.00 0.00 0.00 0.00 0.00 0.00 0.00 0.00 0.00 0.00 0.00 0.00 0.00 0.01 0.01 0.01 0.04 0.07 0.10 0.11 0.10 0.09 0.09 0.12 0.11 0.10 0.17 0.18 0.13 0.13 0.12 0.09 0.07 0.07 0.07 0.07 0.07 0.10 0.15 0.19 0.23 0.21 0.20 0.22 0.22 0.21 0.20
0.00 0.00 0.00 0.00 0.00 0.00 0.00 0.00 0.00 0.01 0.01 0.00 0.00 0.00 0.00 0.01 0.00 0.01 0.02 0.04 0.08 0.12 0.12 0.11 0.10 0.12 0.15 0.12 0.14 0.20 0.18 0.15 0.15 0.13 0.09 0.07 0.08 0.09 0.10 0.10 0.12 0.16 0.21 0.24 0.22 0.21 0.21 0.21 0.20
0.00 0.00 0.00 0.00 0.00 0.00 0.00 0.01 0.00 0.01 0.01 0.00 0.00 0.00 0.00 0.00 0.00 0.00 0.01 0.02 0.04 0.05 0.08 0.09 0.10 0.10 0.16 0.15 0.13 0.16 0.20 0.18 0.18 0.16 0.12 0.10 0.10 0.10 0.11 0.10 0.11 0.14 0.18 0.22 0.22 0.19 0.18 0.18 0.17
0.00 0.00 0.00 0.00 0.00 0.00 0.00 0.01 0.01 0.01 0.00 0.00 0.00 0.00 0.00 0.01 0.01 0.01 0.01 0.01 0.02 0.03 0.04 0.06 0.08 0.08 0.12 0.13 0.11 0.14 0.20 0.23 0.22 0.19 0.14 0.12 0.14 0.14 0.12 0.12 0.12 0.13 0.15 0.19 0.21 0.20 0.16 0.15 0.16
0.00 0.00 0.01 0.01 0.00 0.00 0.00 0.00 0.00 0.00 0.00 0.00 0.00 0.00 0.01 0.01 0.01 0.01 0.01 0.01 0.02 0.02 0.02 0.02 0.05 0.07 0.07 0.08 0.08 0.10 0.15 0.22 0.24 0.23 0.19 0.15 0.15 0.14 0.13 0.13 0.14 0.14 0.16 0.19 0.19 0.18 0.16 0.14 0.14
0.00 0.00 0.00 0.00 0.00 0.00 0.00 0.00 0.00 0.00 0.00 0.00 0.00 0.00 0.00 0.01 0.01 0.01 0.02 0.01 0.02 0.03 0.02 0.03 0.04 0.06 0.07 0.07 0.07 0.08 0.11 0.16 0.20 0.21 0.22 0.18 0.16 0.16 0.17 0.18 0.17 0.16 0.16 0.18 0.19 0.17 0.14 0.14 0.14
0.00 0.00 0.00 0.01 0.01 0.00 0.00 0.00 0.00 0.00 0.00 0.00 0.00 0.00 0.00 0.00 0.00 0.01 0.01 0.01 0.02 0.02 0.03 0.03 0.04 0.06 0.07 0.07 0.06 0.06 0.08 0.11 0.15 0.17 0.17 0.17 0.16 0.17 0.19 0.21 0.23 0.21 0.19 0.18 0.18 0.18 0.14 0.13 0.15
0.00 0.00 0.00 0.00 0.00 0.01 0.00 0.00 0.00 0.00 0.00 0.00 0.00 0.00 0.00 0.00 0.00 0.00 0.00 0.00 0.01 0.02 0.02 0.03 0.05 0.06 0.08 0.09 0.08 0.07 0.08 0.09 0.11 0.14 0.14 0.13 0.12 0.14 0.17 0.18 0.23 0.25 0.22 0.19 0.18 0.18 0.18 0.17 0.16
0.00 0.00 0.00 0.00 0.01 0.01 0.01 0.00 0.00 0.00 0.00 0.00 0.00 0.00 0.00 0.00 0.00 0.00 0.00 0.00 0.01 0.01 0.01 0.02 0.04 0.06 0.08 0.09 0.09 0.10 0.11 0.12 0.12 0.12 0.13 0.13 0.11 0.11 0.13 0.16 0.19 0.24 0.25 0.21 0.18 0.18 0.19 0.19 0.17
MSLP
1012.12 1011.91 1011.88 1012.07 1012.45 1012.96 1013.54 1014.08 1014.51 1014.77 1014.88 1014.87 1014.85 1014.89 1015.07 1015.43 1015.95 1016.56 1017.15 1017.63 1017.89 1017.90 1017.65 1017.18 1016.56 1015.89 1015.22 1014.60 1014.04 1013.53 1013.04 1012.54 1012.03 1011.53 1011.06 1010.64 1010.31 1010.07 1009.91 1009.80 1009.72 1009.64 1009.55 1009.48 1009.43 1009.44 1009.52 1009.68 1009.91
1011.99 1011.83 1011.89 1012.19 1012.70 1013.35 1014.05 1014.70 1015.22 1015.55 1015.72 1015.77 1015.78 1015.85 1016.03 1016.35 1016.80 1017.32 1017.79 1018.14 1018.28 1018.19 1017.87 1017.37 1016.77 1016.13 1015.51 1014.95 1014.43 1013.95 1013.46 1012.96 1012.45 1011.93 1011.43 1010.99 1010.61 1010.31 1010.06 1009.85 1009.65 1009.45 1009.26 1009.11 1009.02 1009.03 1009.15 1009.37 1009.67
1011.89 1011.79 1011.93 1012.32 1012.94 1013.69 1014.48 1015.21 1015.79 1016.19 1016.41 1016.51 1016.56 1016.65 1016.82 1017.11 1017.50 1017.91 1018.26 1018.48 1018.51 1018.33 1017.95 1017.44 1016.85 1016.25 1015.68 1015.17 1014.69 1014.24 1013.78 1013.29 1012.79 1012.28 1011.78 1011.33 1010.93 1010.58 1010.26 1009.96 1009.65 1009.35 1009.06 1008.84 1008.71 1008.72 1008.87 1009.15 1009.52
1011.89 1011.84 1012.05 1012.52 1013.20 1014.00 1014.83 1015.60 1016.21 1016.64 1016.90 1017.03 1017.11 1017.21 1017.38 1017.64 1017.96 1018.28 1018.53 1018.64 1018.57 1018.32 1017.92 1017.40 1016.84 1016.29 1015.78 1015.32 1014.89 1014.46 1014.02 1013.56 1013.06 1012.57 1012.09 1011.64 1011.24 1010.86 1010.50 1010.13 1009.75 1009.36 1009.00 1008.71 1008.55 1008.55 1008.72 1009.04 1009.45
1012.02 1012.05 1012.33 1012.84 1013.54 1014.35 1015.16 1015.90 1016.49 1016.91 1017.17 1017.32 1017.42 1017.54 1017.71 1017.94 1018.20 1018.44 1018.60 1018.63 1018.50 1018.21 1017.80 1017.31 1016.80 1016.31 1015.87 1015.46 1015.06 1014.67 1014.24 1013.78 1013.30 1012.81 1012.34 1011.91 1011.51 1011.13 1010.75 1010.34 1009.91 1009.47 1009.05 1008.72 1008.52 1008.50 1008.67 1009.00 1009.42
1012.35 1012.46 1012.80 1013.34 1014.02 1014.78 1015.52 1016.18 1016.70 1017.06 1017.29 1017.43 1017.54 1017.66 1017.83 1018.04 1018.27 1018.45 1018.54 1018.51 1018.34 1018.04 1017.65 1017.21 1016.77 1016.36 1015.98 1015.62 1015.27 1014.88 1014.46 1013.99 1013.49 1013.00 1012.54 1012.11 1011.72 1011.34 1010.96 1010.54 1010.09 1009.61 1009.16 1008.79 1008.55 1008.50 1008.64 1008.95 1009.36
1012.88 1013.10 1013.49 1014.04 1014.68 1015.34 1015.96 1016.49 1016.89 1017.16 1017.33 1017.44 1017.55 1017.68 1017.85 1018.04 1018.24 1018.38 1018.43 1018.36 1018.16 1017.87 1017.51 1017.13 1016.77 1016.43 1016.12 1015.82 1015.49 1015.11 1014.67 1014.18 1013.65 1013.14 1012.66 1012.22 1011.83 1011.46 1011.07 1010.65 1010.19 1009.70 1009.22 1008.82 1008.54 1008.44 1008.53 1008.79 1009.17
1013.59 1013.91 1014.36 1014.90 1015.47 1016.02 1016.49 1016.86 1017.12 1017.28 1017.37 1017.44 1017.53 1017.66 1017.83 1018.02 1018.20 1018.31 1018.32 1018.22 1018.02 1017.74 1017.41 1017.09 1016.79 1016.52 1016.27 1016.01 1015.69 1015.31 1014.84 1014.32 1013.76 1013.20 1012.69 1012.23 1011.82 1011.44 1011.06 1010.64 1010.16 1009.66 1009.16 1008.71 1008.39 1008.23 1008.26 1008.46 1008.79
1014.40 1014.81 1015.31 1015.83 1016.32 1016.74 1017.07 1017.28 1017.39 1017.43 1017.44 1017.46 1017.54 1017.67 1017.84 1018.03 1018.19 1018.27 1018.26 1018.13 1017.92 1017.64 1017.34 1017.06 1016.81 1016.59 1016.37 1016.13 1015.82 1015.43 1014.94 1014.38 1013.78 1013.19 1012.63 1012.14 1011.71 1011.31 1010.90 1010.47 1009.98 1009.45 1008.92 1008.44 1008.06 1007.84 1007.80 1007.93 1008.21
1015.22 1015.71 1016.22 1016.71 1017.12 1017.42 1017.60 1017.67 1017.64 1017.58 1017.52 1017.51 1017.57 1017.70 1017.87 1018.06 1018.21 1018.27 1018.23 1018.08 1017.85 1017.57 1017.27 1017.00 1016.77 1016.57 1016.38 1016.14 1015.83 1015.43 1014.92 1014.33 1013.71 1013.08 1012.50 1011.98 1011.51 1011.07 1010.64 1010.18 1009.66 1009.11 1008.54 1008.01 1007.57 1007.29 1007.18 1007.26 1007.48
1015.95 1016.47 1016.98 1017.42 1017.75 1017.95 1018.00 1017.95 1017.82 1017.68 1017.57 1017.53 1017.59 1017.72 1017.90 1018.09 1018.23 1018.28 1018.21 1018.04 1017.79 1017.49 1017.19 1016.91 1016.67 1016.47 1016.26 1016.02 1015.70 1015.29 1014.77 1014.18 1013.55 1012.91 1012.31 1011.76 1011.27 1010.80 1010.33 1009.82 1009.27 1008.67 1008.06 1007.49 1007.01 1006.66 1006.50 1006.51 1006.69
1016.52 1017.03 1017.51 1017.88 1018.13 1018.22 1018.18 1018.04 1017.84 1017.65 1017.52 1017.48 1017.54 1017.68 1017.87 1018.06 1018.20 1018.23 1018.16 1017.97 1017.70 1017.39 1017.07 1016.77 1016.51 1016.28 1016.04 1015.78 1015.44 1015.02 1014.52 1013.94 1013.32 1012.70 1012.10 1011.55 1011.03 1010.53 1010.02 1009.47 1008.87 1008.24 1007.59 1006.97 1006.45 1006.06 1005.84 1005.81 1005.95
1016.92 1017.38 1017.78 1018.07 1018.23 1018.24 1018.12 1017.92 1017.68 1017.47 1017.34 1017.30 1017.37 1017.53 1017.73 1017.92 1018.06 1018.10 1018.03 1017.84 1017.57 1017.25 1016.92 1016.60 1016.31 1016.03 1015.76 1015.46 1015.11 1014.68 1014.19 1013.63 1013.04 1012.45 1011.88 1011.34 1010.82 1010.30 1009.76 1009.17 1008.54 1007.86 1007.18 1006.53 1005.98 1005.56 1005.31 1005.24 1005.34
1017.18 1017.55 1017.85 1018.04 1018.10 1018.03 1017.85 1017.61 1017.36 1017.14 1017.02 1017.00 1017.08 1017.24 1017.45 1017.65 1017.80 1017.85 1017.79 1017.63 1017.38 1017.08 1016.75 1016.42 1016.10 1015.79 1015.48 1015.14 1014.75 1014.31 1013.82 1013.28 1012.73 1012.18 1011.64 1011.12 1010.61 1010.09 1009.53 1008.93 1008.27 1007.57 1006.87 1006.20 1005.63 1005.19 1004.92 1004.83 1004.90
1017.40 1017.66 1017.84 1017.91 1017.87 1017.71 1017.48 1017.20 1016.93 1016.72 1016.60 1016.59 1016.68 1016.85 1017.06 1017.26 1017.42 1017.49 1017.47 1017.34 1017.14 1016.88 1016.57 1016.25 1015.92 1015.58 1015.22 1014.83 1014.40 1013.93 1013.42 1012.90 1012.37 1011.85 1011.34 1010.85 1010.36 1009.85 1009.30 1008.68 1008.02 1007.32 1006.61 1005.95 1005.37 1004.93 1004.64 1004.53 1004.58
1017.67 1017.82 1017.88 1017.83 1017.67 1017.43 1017.12 1016.80 1016.51 1016.29 1016.17 1016.16 1016.24 1016.40 1016.59 1016.79 1016.96 1017.05 1017.06 1017.00 1016.85 1016.64 1016.38 1016.09 1015.75 1015.39 1014.99 1014.54 1014.06 1013.54 1013.00 1012.45 1011.91 1011.40 1010.92 1010.45 1009.98 1009.49 1008.95 1008.36 1007.71 1007.03 1006.34 1005.69 1005.12 1004.68 1004.39 1004.27 1004.30
1018.08 1018.13 1018.07 1017.90 1017.63 1017.28 1016.89 1016.51 1016.18 1015.93 1015.79 1015.76 1015.82 1015.96 1016.13 1016.32 1016.47 1016.58 1016.63 1016.60 1016.51 1016.36 1016.16 1015.89 1015.57 1015.19 1014.75 1014.25 1013.70 1013.11 1012.50 1011.90 1011.33 1010.80 1010.31 1009.85 1009.40 1008.93 1008.43 1007.87 1007.25 1006.60 1005.94 1005.32 1004.77 1004.33 1004.04 1003.92 1003.94
1018.67 1018.64 1018.48 1018.18 1017.79 1017.32 1016.83 1016.37 1015.98 1015.69 1015.51 1015.45 1015.48 1015.59 1015.73 1015.89 1016.03 1016.13 1016.19 1016.19 1016.13 1016.02 1015.85 1015.62 1015.31 1014.92 1014.44 1013.88 1013.25 1012.58 1011.90 1011.22 1010.59 1010.01 1009.49 1009.02 1008.58 1008.14 1007.67 1007.15 1006.59 1005.98 1005.36 1004.76 1004.23 1003.80 1003.51 1003.38 1003.40
1019.41 1019.33 1019.07 1018.67 1018.14 1017.55 1016.94 1016.38 1015.90 1015.55 1015.33 1015.23 1015.24 1015.31 1015.43 1015.56 1015.67 1015.74 1015.77 1015.76 1015.71 1015.60 1015.44 1015.22 1014.91 1014.50 1013.99 1013.38 1012.69 1011.93 1011.16 1010.39 1009.68 1009.04 1008.47 1007.98 1007.54 1007.12 1006.68 1006.22 1005.70 1005.14 1004.56 1003.98 1003.46 1003.04 1002.74 1002.60 1002.63
1020.23 1020.11 1019.77 1019.26 1018.61 1017.88 1017.14 1016.46 1015.89 1015.47 1015.20 1015.08 1015.07 1015.13 1015.23 1015.33 1015.40 1015.42 1015.40 1015.34 1015.24 1015.09 1014.90 1014.66 1014.32 1013.90 1013.36 1012.71 1011.97 1011.15 1010.29 1009.45 1008.65 1007.94 1007.32 1006.80 1006.35 1005.94 1005.54 1005.11 1004.64 1004.12 1003.57 1003.01 1002.49 1002.06 1001.75 1001.60 1001.62
1021.02 1020.87 1020.47 1019.85 1019.08 1018.21 1017.33 1016.53 1015.86 1015.37 1015.07 1014.94 1014.94 1015.01 1015.11 1015.19 1015.22 1015.18 1015.08 1014.92 1014.73 1014.50 1014.23 1013.93 1013.56 1013.10 1012.54 1011.87 1011.10 1010.24 1009.33 1008.42 1007.57 1006.79 1006.13 1005.57 1005.11 1004.71 1004.33 1003.94 1003.50 1003.00 1002.46 1001.90 1001.37 1000.92 1000.58 1000.42 1000.44
1021.69 1021.51 1021.06 1020.35 1019.45 1018.44 1017.43 1016.50 1015.73 1015.19 1014.87 1014.75 1014.78 1014.89 1015.02 1015.10 1015.10 1015.00 1014.80 1014.52 1014.19 1013.83 1013.46 1013.07 1012.64 1012.15 1011.58 1010.90 1010.12 1009.25 1008.33 1007.39 1006.49 1005.68 1004.97 1004.39 1003.92 1003.52 1003.15 1002.78 1002.35 1001.87 1001.33 1000.75 1000.19 999.70 999.35 999.16 999.19
1022.20 1022.00 1021.48 1020.69 1019.68 1018.54 1017.39 1016.34 1015.49 1014.89 1014.56 1014.46 1014.55 1014.72 1014.90 1015.01 1014.99 1014.83 1014.53 1014.12 1013.65 1013.14 1012.63 1012.13 1011.63 1011.10 1010.52 1009.85 1009.08 1008.23 1007.31 1006.37 1005.46 1004.62 1003.90 1003.30 1002.81 1002.41 1002.05 1001.67 1001.26 1000.77 1000.21 999.61 999.02 998.50 998.12 997.92 997.95
1022.54 1022.32 1021.77 1020.91 1019.80 1018.54 1017.26 1016.10 1015.15 1014.49 1014.15 1014.08 1014.22 1014.46 1014.70 1014.85 1014.84 1014.64 1014.25 1013.72 1013.10 1012.44 1011.79 1011.18 1010.60 1010.02 1009.42 1008.76 1008.02 1007.19 1006.29 1005.36 1004.45 1003.60 1002.86 1002.25 1001.75 1001.34 1000.98 1000.61 1000.19 999.69 999.12 998.50 997.89 997.35 996.95 996.75 996.80
1022.79 1022.57 1021.99 1021.08 1019.88 1018.52 1017.13 1015.84 1014.79 1014.07 1013.69 1013.63 1013.81 1014.11 1014.41 1014.60 1014.60 1014.37 1013.91 1013.28 1012.54 1011.75 1010.97 1010.25 1009.58 1008.96 1008.33 1007.66 1006.93 1006.11 1005.22 1004.29 1003.37 1002.52 1001.76 1001.14 1000.63 1000.22 999.86 999.49 999.08 998.58 998.01 997.39 996.78 996.24 995.86 995.68 995.76
1023.03 1022.82 1022.24 1021.29 1020.03 1018.58 1017.08 1015.68 1014.52 1013.70 1013.26 1013.17 1013.34 1013.66 1013.99 1014.21 1014.22 1013.98 1013.48 1012.78 1011.95 1011.06 1010.18 1009.36 1008.61 1007.92 1007.25 1006.55 1005.79 1004.94 1004.03 1003.08 1002.13 1001.25 1000.47 999.83 999.31 998.91 998.56 998.21 997.82 997.35 996.81 996.23 995.65 995.16 994.82 994.71 994.85
1023.34 1023.15 1022.58 1021.62 1020.32 1018.80 1017.20 1015.69 1014.40 1013.47 1012.93 1012.75 1012.87 1013.15 1013.47 1013.68 1013.69 1013.43 1012.92 1012.18 1011.30 1010.35 1009.40 1008.50 1007.68 1006.91 1006.16 1005.38 1004.54 1003.63 1002.64 1001.61 1000.60 999.66 998.85 998.18 997.67 997.27 996.95 996.66 996.32 995.92 995.45 994.95 994.46 994.05 993.81 993.79 994.03
1023.74 1023.59 1023.05 1022.09 1020.78 1019.20 1017.52 1015.90 1014.48 1013.41 1012.73 1012.42 1012.42 1012.62 1012.86 1013.03 1013.01 1012.74 1012.22 1011.48 1010.58 1009.60 1008.61 1007.66 1006.76 1005.90 1005.04 1004.14 1003.17 1002.11 1000.99 999.84 998.72 997.69 996.82 996.13 995.61 995.25 995.00 994.78 994.54 994.25 993.91 993.53 993.17 992.90 992.79 992.91 993.27
1024.22 1024.10 1023.58 1022.64 1021.33 1019.73 1017.99 1016.27 1014.73 1013.51 1012.67 1012.20 1012.04 1012.09 1012.22 1012.29 1012.22 1011.92 1011.40 1010.66 1009.78 1008.81 1007.81 1006.83 1005.86 1004.89 1003.89 1002.82 1001.66 1000.40 999.08 997.75 996.48 995.35 994.40 993.68 993.18 992.87 992.71 992.60 992.51 992.38 992.20 991.99 991.81 991.72 991.78 992.06 992.56
1024.66 1024.56 1024.06 1023.14 1021.84 1020.23 1018.46 1016.69 1015.06 1013.71 1012.71 1012.06 1011.72 1011.60 1011.57 1011.53 1011.37 1011.04 1010.50 1009.79 1008.94 1008.00 1007.01 1006.00 1004.96 1003.87 1002.71 1001.44 1000.05 998.56 997.01 995.46 994.02 992.75 991.72 990.98 990.51 990.28 990.22 990.27 990.35 990.41 990.43 990.42 990.44 990.54 990.79 991.24 991.90
Thickness
5709 5714 5718 5718 5713 5713 5719 5721 5721 5718 5719 5721 5721 5724 5727 5727 5726 5720 5720 5724 5726 5729 5733 5736 5737 5741 5745 5748 5750 5752 5754 5755 5756 5757 5758 5758 5758 5757 5757 5757 5756 5755 5755 5754 5753 5752 5751 5749 5748
5706 5710 5712 5710 5707 5711 5715 5715 5711 5711 5710 5713 5716 5718 5719 5718 5718 5717 5716 5717 5720 5723 5726 5729 5731 5735 5738 5741 5744 5746 5748 5750 5751 5752 5753 5754 5754 5754 5754 5753 5753 5752 5752 5751 5750 5749 5748 5746 5745
5701 5705 5704 5702 5704 5713 5713 5706 5704 5703 5704 5706 5707 5710 5710 5710 5710 5709 5708 5711 5715 5717 5720 5722 5724 5727 5731 5734 5737 5740 5742 5744 5745 5746 5748 5749 5749 5750 5750 5750 5749 5749 5748 5748 5747 5746 5744 5743 5741
5697 5697 5696 5696 5699 5700 5700 5697 5694 5696 5697 5697 5699 5701 5702 5701 5701 5700 5701 5704 5708 5711 5713 5715 5716 5720 5724 5727 5730 5733 5735 5737 5739 5740 5742 5743 5744 5745 5745 5745 5745 5745 5745 5744 5743 5742 5741 5739 5738
5691 5690 5687 5689 5692 5690 5689 5686 5686 5688 5689 5689 5690 5692 5693 5693 5693 5693 5694 5697 5700 5703 5705 5707 5708 5711 5715 5719 5722 5725 5728 5730 5732 5734 5735 5737 5738 5740 5741 5741 5741 5741 5740 5740 5739 5738 5737 5736 5735
5681 5683 5685 5689 5687 5681 5679 5677 5678 5680 5681 5681 5681 5683 5686 5686 5684 5685 5687 5689 5692 5694 5696 5699 5701 5703 5707 5710 5714 5717 5720 5722 5725 5727 5729 5730 5732 5734 5735 5736 5736 5736 5736 5736 5735 5734 5733 5732 5731
5674 5675 5680 5682 5677 5673 5670 5668 5671 5671 5673 5674 5673 5674 5680 5679 5676 5676 5679 5681 5684 5686 5688 5691 5693 5696 5699 5702 5705 5709 5712 5714 5717 5719 5722 5723 5725 5727 5729 5729 5730 5731 5731 5731 5731 5730 5729 5728 5727
5667 5668 5667 5669 5668 5667 5661 5660 5660 5660 5664 5664 5663 5666 5669 5668 5666 5667 5670 5672 5674 5676 5679 5681 5684 5687 5690 5694 5697 5700 5703 5706 5709 5712 5714 5716 5719 5721 5722 5723 5724 5725 5726 5726 5726 5726 5725 5724 5723
5658 5659 5663 5662 5660 5658 5652 5652 5653 5651 5652 5654 5655 5656 5656 5656 5656 5658 5660 5663 5665 5667 5669 5671 5674 5677 5680 5684 5689 5691 5695 5698 5701 5704 5706 5709 5712 5714 5716 5717 5718 5718 5719 5720 5720 5721 5720 5720 5718
5651 5654 5655 5649 5649 5647 5643 5643 5643 5645 5646 5648 5648 5647 5646 5646 5647 5648 5650 5652 5654 5656 5658 5660 5663 5666 5669 5674 5678 5681 5686 5689 5692 5695 5698 5701 5704 5707 5709 5710 5711 5712 5712 5713 5714 5715 5715 5715 5714
5641 5644 5640 5637 5636 5635 5635 5635 5635 5636 5641 5643 5641 5640 5637 5636 5637 5638 5640 5641 5643 5644 5645 5647 5650 5654 5658 5662 5667 5670 5674 5677 5681 5685 5688 5691 5695 5698 5700 5702 5703 5704 5705 5707 5708 5708 5710 5711 5711
5631 5630 5629 5630 5625 5625 5627 5628 5629 5630 5635 5635 5632 5629 5627 5627 5628 5628 5629 5630 5631 5633 5634 5636 5638 5641 5645 5649 5654 5658 5662 5666 5670 5674 5677 5681 5684 5688 5692 5693 5695 5697 5698 5700 5702 5703 5704 5705 5706
5624 5622 5620 5619 5617 5617 5617 5620 5621 5627 5629 5626 5622 5619 5619 5619 5618 5617 5617 5618 5619 5621 5622 5623 5625 5629 5632 5636 5641 5645 5649 5653 5657 5661 5666 5669 5673 5677 5681 5684 5686 5688 5690 5692 5695 5696 5697 5699 5700
5614 5613 5613 5613 5612 5611 5611 5616 5614 5625 5622 5618 5614 5613 5611 5609 5607 5606 5606 5606 5607 5609 5610 5611 5613 5616 5619 5623 5627 5631 5635 5639 5643 5648 5653 5657 5660 5665 5669 5673 5676 5679 5681 5684 5686 5689 5690 5691 5692
5604 5607 5612 5611 5608 5607 5603 5616 5617 5620 5614 5611 5610 5607 5603 5600 5598 5596 5595 5595 5595 5597 5598 5599 5600 5603 5606 5609 5613 5617 5621 5625 5629 5635 5640 5644 5647 5651 5656 5661 5665 5668 5670 5673 5676 5679 5681 5683 5684
5602 5608 5614 5610 5602 5599 5598 5619 5620 5613 5607 5606 5604 5601 5597 5593 5590 5588 5586 5585 5584 5585 5585 5586 5586 5588 5590 5593 5597 5602 5606 5610 5614 5619 5625 5631 5634 5638 5641 5647 5653 5656 5659 5662 5665 5668 5671 5674 5676
5605 5608 5608 5607 5598 5594 5593 5608 5614 5606 5601 5600 5597 5594 5590 5587 5583 5580 5576 5575 5573 5572 5572 5572 5572 5573 5575 5578 5582 5587 5592 5596 5600 5604 5610 5616 5620 5624 5627 5633 5639 5643 5647 5651 5655 5659 5661 5664 5667
5599 5601 5598 5600 5596 5587 5590 5602 5608 5603 5597 5595 5592 5588 5584 5580 5575 5570 5566 5564 5561 5559 5558 5558 5558 5559 5560 5563 5567 5572 5577 5582 5585 5590 5595 5601 5606 5609 5613 5619 5625 5630 5634 5639 5643 5647 5651 5654 5658
5581 5582 5587 5592 5583 5578 5590 5597 5602 5599 5593 5590 5586 5582 5577 5572 5567 5561 5556 5553 5550 5548 5547 5546 5546 5546 5547 5549 5553 5558 5564 5569 5573 5576 5581 5586 5591 5595 5600 5606 5612 5618 5623 5628 5632 5636 5639 5643 5645
5572 5575 5582 5585 5574 5570 5580 5589 5598 5593 5587 5582 5579 5575 5570 5564 5560 5553 5548 5544 5540 5538 5537 5536 5535 5536 5535 5536 5539 5544 5549 5555 5560 5563 5568 5572 5578 5582 5587 5593 5600 5606 5611 5616 5620 5624 5627 5631 5634
5570 5571 5573 5569 5568 5566 5561 5595 5598 5589 5580 5574 5571 5567 5562 5556 5552 5546 5540 5536 5532 5529 5527 5527 5526 5525 5525 5526 5527 5531 5536 5542 5547 5552 5556 5561 5565 5570 5575 5581 5587 5593 5598 5604 5609 5613 5616 5620 5623
5568 5562 5555 5552 5553 5567 5552 5577 5599 5585 5576 5571 5567 5561 5555 5548 5542 5537 5532 5528 5524 5521 5518 5518 5517 5517 5517 5518 5519 5522 5525 5531 5536 5540 5545 5549 5554 5559 5563 5569 5574 5580 5586 5592 5597 5601 5605 5609 5613
5555 5546 5542 5540 5540 5537 5546 5538 5587 5574 5570 5569 5562 5554 5547 5539 5532 5527 5523 5519 5517 5513 5510 5509 5509 5510 5511 5511 5511 5513 5516 5521 5525 5528 5534 5539 5543 5548 5552 5558 5564 5569 5575 5581 5585 5590 5594 5599 5604
5537 5536 5532 5528 5531 5538 5547 5541 5577 5576 5566 5560 5553 5545 5536 5529 5523 5519 5515 5512 5510 5507 5504 5501 5502 5503 5504 5504 5504 5505 5507 5511 5514 5519 5523 5529 5534 5538 5543 5547 5552 5558 5564 5570 5575 5579 5584 5589 5594
5532 5538 5548 5550 5546 5559 5535 5530 5561 5566 5554 5545 5539 5533 5526 5520 5515 5511 5507 5505 5502 5500 5497 5496 5495 5496 5496 5496 5497 5498 5498 5502 5505 5509 5514 5519 5524 5529 5534 5537 5542 5548 5555 5560 5564 5569 5574 5579 5584
5524 5527 5536 5543 5555 5559 5531 5536 5562 5554 5543 5534 5527 5521 5515 5511 5507 5502 5498 5495 5493 5491 5489 5489 5489 5489 5488 5488 5490 5489 5489 5493 5497 5500 5504 5508 5513 5519 5523 5528 5533 5540 5545 5550 5555 5559 5565 5571 5576
5515 5518 5511 5508 5497 5502 5539 5542 5547 5546 5537 5529 5522 5515 5508 5503 5499 5496 5492 5488 5485 5483 5482 5481 5480 5480 5480 5480 5480 5480 5481 5483 5487 5490 5493 5498 5502 5507 5513 5518 5524 5531 5537 5542 5546 5551 5558 5562 5568
5501 5500 5495 5498 5505 5525 5542 5539 5547 5541 5536 5527 5517 5509 5503 5496 5491 5488 5484 5480 5477 5475 5474 5474 5473 5472 5472 5472 5471 5472 5473 5475 5477 5479 5484 5488 5492 5497 5503 5509 5516 5523 5530 5534 5539 5545 5551 5555 5561
5483 5481 5487 5491 5489 5502 5523 5546 5541 5529 5524 5516 5509 5502 5495 5489 5484 5480 5476 5473 5470 5468 5467 5466 5465 5465 5464 5464 5464 5463 5464 5465 5468 5470 5474 5478 5483 5489 5495 5501 5508 5515 5522 5528 5534 5540 5545 5549 5554
5483 5485 5482 5485 5480 5472 5491 5525 5532 5519 5511 5503 5498 5492 5487 5482 5476 5472 5469 5467 5465 5462 5460 5459 5457 5457 5456 5455 5455 5456 5456 5457 5459 5463 5466 5469 5475 5482 5488 5493 5501 5508 5516 5522 5529 5535 5540 5544 5550